Zurück zum Katalog

COSMOS 1275 DEB

AktivPO
NORAD 12773·DEBRIS·🇷🇺 Russia

Gestartet Jun 4, 1981 von Plesetsk Cosmodrome

Loading…

Nächste Überflüge (nächste 24 Stunden)

TLE

AktuellSource: Space-Track

Epoche: Sep 14, 2026, 21:44 UTC

1 12773U 81053DS  26257.90618470  .00020507  00000-0  27749-2 0  9999
2 12773  82.9180 227.9123 0068187 280.7376  78.6165 14.77259604290200

Verfolge COSMOS 1275 DEB in Echtzeit mit AllMySat

Download on the App Store